Bookmark and Share
Track history (hours):
 

Giove Jet

Last reported at 2014-Apr-23 12:20 UTC. Time now 2014-Apr-23 13:03 UTC.
Position N 40°44' E 014°20'.

Length 33 m; draft 1.5 m.

Type: Ship. MMSI: 247049500.

NotesDate/timePositionNaut miles runAvg speedWind from/ knotsBaromVisibWave heightAir tempDewpointWater temp
2014-Apr-23 12:20N 40°44' E 014°20'7 8.5
2014-Apr-23 11:31N 40°38' E 014°23'8 7.9
2014-Apr-23 10:34N 40°33' E 014°14'8 7.5
2014-Apr-23 09:33N 40°38' E 014°22'11 9.0
2014-Apr-23 08:17N 40°49' E 014°16'1621.6
2014-Apr-23 07:33N 40°45' E 013°56'0 0.0
2014-Apr-23 06:33N 40°45' E 013°56'5 5.4
2014-Apr-23 05:33N 40°46' E 014°03'2 0.1
2014-Apr-22 13:34N 40°46' E 014°01'4 3.9
2014-Apr-22 12:33N 40°45' E 013°56'0 0.0
2014-Apr-22 11:33N 40°45' E 013°56'12 4.0
2014-Apr-22 08:33N 40°47' E 014°12'7 6.6
2014-Apr-22 07:34N 40°46' E 014°03'7 6.9
2014-Apr-22 06:33N 40°48' E 014°12'6 6.5
2014-Apr-22 05:33N 40°47' E 014°04'8 0.7
2014-Apr-21 18:25N 40°50' E 014°14'1416.3
2014-Apr-21 17:33N 40°45' E 013°56'8 8.3
2014-Apr-21 16:33N 40°47' E 014°07'5 4.8
2014-Apr-21 15:34N 40°46' E 014°01'5 4.9
2014-Apr-21 14:34N 40°47' E 014°07'4 4.2
2014-Apr-21 13:34N 40°46' E 014°02'4 4.3
2014-Apr-21 12:33N 40°45' E 013°56'0 0.1
2014-Apr-21 11:33N 40°45' E 013°56'1613.1
2014-Apr-21 10:19N 40°50' E 014°17'6 3.1
2014-Apr-21 08:33N 40°47' E 014°10'0 0.2
2014-Apr-21 07:33N 40°47' E 014°10'6 5.5
2014-Apr-21 06:28N 40°49' E 014°17'13 0.9
2014-Apr-20 15:34N 40°46' E 014°01'5 5.3
2014-Apr-20 14:33N 40°47' E 014°08'5 5.5
2014-Apr-20 13:34N 40°46' E 014°01'4 3.6
2014-Apr-20 12:33N 40°45' E 013°56'0 0.0
2014-Apr-20 11:33N 40°45' E 013°56'11 3.8
2014-Apr-20 08:34N 40°47' E 014°11'3 3.4
2014-Apr-20 07:33N 40°47' E 014°07'3 0.2
2014-Apr-19 15:33N 40°47' E 014°02'5 5.5
2014-Apr-19 14:33N 40°47' E 014°09'7 6.7
2014-Apr-19 13:34N 40°46' E 014°01'4 3.7
2014-Apr-19 12:34N 40°45' E 013°56'0 0.1
2014-Apr-19 11:33N 40°45' E 013°56'0 0.0
2014-Apr-19 10:33N 40°45' E 013°56'12 6.0
2014-Apr-19 08:31N 40°47' E 014°12'5 4.8
2014-Apr-19 07:33N 40°47' E 014°06'5 0.3
2014-Apr-18 13:34N 40°44' E 014°01'3 3.4
2014-Apr-18 12:33N 40°45' E 013°56'0 0.0
2014-Apr-18 11:33N 40°45' E 013°56'1412.7
2014-Apr-18 10:27N 40°50' E 014°14'2 1.3
2014-Apr-18 08:31N 40°47' E 014°12'7 6.7
2014-Apr-18 07:33N 40°46' E 014°04'4 3.7
2014-Apr-18 06:27N 40°47' E 014°09'  
2014-Apr-15 15:30N 40°48' E 014°14'1414.4
2014-Apr-15 14:33N 40°45' E 013°56'13 4.1
2014-Apr-15 11:32N 40°47' E 014°12'1312.9
2014-Apr-15 10:34N 40°45' E 013°56'8 0.4
2014-Apr-14 16:34N 40°46' E 014°06'4 4.0
2014-Apr-14 15:34N 40°46' E 014°01'4 2.0
2014-Apr-14 13:34N 40°45' E 013°56'4 1.5
2014-Apr-14 10:33N 40°46' E 014°02'4 2.2
2014-Apr-14 08:34N 40°45' E 013°56'0 0.0
2014-Apr-14 07:33N 40°45' E 013°56'  

Dump ship's entire track history

sailing weather and tide predictions

Giove Jet — IJNX — position and weather